WetterOnline ( http://www.wetteronline.de )

Wetter aktuell Paderborn

Aktuelles Wetter: Bad Lippspringe (158m)

6-stündlich | Neueste Meldungen
Ortszeit Temperatur Wetter
Di, 22.05. 20:00 20.0° C bedeckt
Di, 22.05. 14:00 23.4° C bedeckt
Di, 22.05. 8:00 17.5° C wolkig
Di, 22.05. 2:00 17.5° C bedeckt
Mo, 21.05. 20:00 22.3° C fast wolkenlos
Mo, 21.05. 14:00 23.2° C wolkenlos
Mo, 21.05. 8:00 15.7° C wolkenlos
Mo, 21.05. 2:00 14.7° C fast wolkenlos
Ortszeit Temperatur Wetter
Mi, 23.05. 1:00 15.5° C bedeckt
Mi, 23.05. 0:50 15.5° C bedeckt
Mi, 23.05. 0:40 15.6° C bedeckt
Mi, 23.05. 0:30 15.9° C bedeckt
Mi, 23.05. 0:20 15.9° C bedeckt
Mi, 23.05. 0:10 15.9° C bedeckt
Mi, 23.05. 0:00 15.7° C bedeckt
Di, 22.05. 23:30 16.0° C bedeckt
Di, 22.05. 23:00 16.0° C bedeckt
Di, 22.05. 22:30 15.8° C bedeckt
Di, 22.05. 22:00 15.5° C bewölkt
Ortszeit Relative Feuchte Sichtweite
Di, 22.05. 20:00 65% 35 km
Di, 22.05. 14:00 42% 45 km
Di, 22.05. 8:00 57% 50 km
Di, 22.05. 2:00 46% 60 km
Mo, 21.05. 20:00 30% 28 km
Mo, 21.05. 14:00 31% 7 km
Mo, 21.05. 8:00 60% 8 km
Mo, 21.05. 2:00 47% 70 km
Ortszeit Relative Feuchte Sichtweite
Mi, 23.05. 1:00 83% 27 km
Mi, 23.05. 0:50 83% -
Mi, 23.05. 0:40 81% -
Mi, 23.05. 0:30 79% 29 km
Mi, 23.05. 0:20 79% -
Mi, 23.05. 0:10 78% -
Mi, 23.05. 0:00 80% 30 km
Di, 22.05. 23:30 78% 40 km
Di, 22.05. 23:00 80% 40 km
Di, 22.05. 22:30 83% 29 km
Di, 22.05. 22:00 84% 26 km
Ortszeit Niederschlagsmenge Niederschlagsart
Di, 22.05. 20:00 0.1 l/m2 in 12 Std. Regen
Di, 22.05. 14:00 0.1 l/m2 in 6 Std. Regen
Di, 22.05. 8:00 0.0 l/m2 in 12 Std. -
Di, 22.05. 2:00 0.0 l/m2 in 6 Std. -
Mo, 21.05. 20:00 0.0 l/m2 in 12 Std. -
Mo, 21.05. 14:00 0.0 l/m2 in 6 Std. -
Mo, 21.05. 8:00 0.0 l/m2 in 12 Std. -
Mo, 21.05. 2:00 0.0 l/m2 in 6 Std. -
Ortszeit Niederschlagsmenge Niederschlagsart
Mi, 23.05. 1:00 0.0 l/m2 in 1 Std. -
Mi, 23.05. 0:50 keine Meldung -
Mi, 23.05. 0:40 keine Meldung -
Mi, 23.05. 0:30 0.0 l/m2 in 1 Std. -
Mi, 23.05. 0:20 keine Meldung -
Mi, 23.05. 0:10 keine Meldung -
Mi, 23.05. 0:00 0.0 l/m2 in 1 Std. -
Di, 22.05. 23:30 0.0 l/m2 in 1 Std. -
Di, 22.05. 23:00 0.0 l/m2 in 1 Std. -
Di, 22.05. 22:30 0.0 l/m2 in 1 Std. -
Di, 22.05. 22:00 0.0 l/m2 in 1 Std. -
Ortszeit Stärke Spitze Richtung
km/h Bft. km/h Grad Sektor
Di, 22.05. 20:00 4 1 22 290° W
Di, 22.05. 14:00 9 2 35 100° O
Di, 22.05. 8:00 9 2 43 100° O
Di, 22.05. 2:00 22 4 33 100° O
Mo, 21.05. 20:00 15 3 48 110° O
Mo, 21.05. 14:00 26 4 52 80° O
Mo, 21.05. 8:00 25 4 36 80° O
Mo, 21.05. 2:00 18 3 32 80° O
Ortszeit Stärke Spitze Richtung
km/h Bft. km/h Grad Sektor
Mi, 23.05. 1:00 0 0 7 - -
Mi, 23.05. 0:50 0 0 - - -
Mi, 23.05. 0:40 2 1 - 180° S
Mi, 23.05. 0:30 6 1 9 200° S
Mi, 23.05. 0:20 6 1 - 200° S
Mi, 23.05. 0:10 6 1 - 200° S
Mi, 23.05. 0:00 0 0 7 - -
Di, 22.05. 23:30 4 1 4 70° O
Di, 22.05. 23:00 4 1 11 90° O
Di, 22.05. 22:30 7 2 11 40° NO
Di, 22.05. 22:00 4 1 7 40° NO
Ortszeit Untergrenze Bedeckung Gattung
total tief tief mittel hoch
Di, 22.05. 20:00 3000 m 8/8 8/8 - - -
Di, 22.05. 14:00 2400 m 8/8 8/8 - - -
Di, 22.05. 8:00 2100 m 8/8 2/8 - - -
Di, 22.05. 2:00 5100 m 8/8 8/8 - - -
Mo, 21.05. 20:00 9000 m 2/8 0/8 - - -
Mo, 21.05. 14:00 - 0/8 0/8 - - -
Mo, 21.05. 8:00 - 0/8 0/8 - - -
Mo, 21.05. 2:00 3300 m 1/8 1/8 - - -
Ortszeit Bedeckungsgrad in Achtel und Wolkenuntergrenze
Mi, 23.05. 1:00 8(2400m)
Mi, 23.05. 0:50 8(2400m)
Mi, 23.05. 0:40 8(2400m)
Mi, 23.05. 0:30 8(2700m)
Mi, 23.05. 0:20 8(2700m)
Mi, 23.05. 0:10 8(2700m)
Mi, 23.05. 0:00 1(2100m) 8(2400m)
Di, 22.05. 23:30 8(2700m)
Di, 22.05. 23:00 8(2700m)
Di, 22.05. 22:30 8(2700m)
Di, 22.05. 22:00 5(2700m) 8(4500m) 8(5400m)
Ortszeit Luftdruck NN (hPa) Tendenz (hPa in 3 Std.)
Di, 22.05. 20:00 1014 + 0,8
Di, 22.05. 14:00 1013 0,0
Di, 22.05. 8:00 1013 + 1,1
Di, 22.05. 2:00 1013 - 1,3
Mo, 21.05. 20:00 1014 - 1,0
Mo, 21.05. 14:00 1017 - 1,9
Mo, 21.05. 8:00 1020 - 0,4
Mo, 21.05. 2:00 1021 - 0,6
Ortszeit Luftdruck NN (hPa) Tendenz (hPa in 3 Std.)
Mi, 23.05. 1:00 1016 + 1,0
Mi, 23.05. 0:50 1016 keine Meldung
Mi, 23.05. 0:40 1016 keine Meldung
Mi, 23.05. 0:30 1016 + 1,0
Mi, 23.05. 0:20 1016 keine Meldung
Mi, 23.05. 0:10 1016 keine Meldung
Mi, 23.05. 0:00 1016 + 1,0
Di, 22.05. 23:30 1015 + 0,9
Di, 22.05. 23:00 1015 + 1,0
Di, 22.05. 22:30 1015 + 1,0
Di, 22.05. 22:00 1015 + 1,0
Ortszeit Schneehöhe (cm)
Di, 22.05. 20:00 -
Di, 22.05. 14:00 -
Di, 22.05. 8:00 -
Di, 22.05. 2:00 -
Mo, 21.05. 20:00 -
Mo, 21.05. 14:00 -
Mo, 21.05. 8:00 -
Mo, 21.05. 2:00 -
Ortszeit Schneehöhe (cm)
Mi, 23.05. 1:00 -
Mi, 23.05. 0:50 -
Mi, 23.05. 0:40 -
Mi, 23.05. 0:30 -
Mi, 23.05. 0:20 -
Mi, 23.05. 0:10 -
Mi, 23.05. 0:00 -
Di, 22.05. 23:30 -
Di, 22.05. 23:00 -
Di, 22.05. 22:30 -
Di, 22.05. 22:00 -
Link zu dieser Seite / Seite empfehlen

Das Wetter in ...